When you browse on this site, cookies collect data to enhance your experience and personalize the content and advertising you see.
Visit our Privacy Policy to learn more. By continuing to use the site, you agree to this use of cookies and data.
  • en Suisse
  • Liste des pays
  • À 7 jours
  • Température de l'eau
  • Carte météo
  • Widgets météo
  • user-avatar
    Se connecter

    Météo par heure à Zhemchuzhnikovo

    Ce jour, 5 Juin, Vendredi

    Heure Température Précipitation Vent Pression Humidité
    00:00 +9°C° 0 mm 3 m/s 737 mmHg 94%
    01:00 +9°C° 0 mm 3 m/s 737 mmHg 95%
    02:00 +9°C° 0 mm 3 m/s 737 mmHg 95%
    03:00 +9°C° 0 mm 3 m/s 737 mmHg 94%
    04:00 +10°C° 0 mm 3 m/s 737 mmHg 93%
    05:00 +10°C° 0 mm 4 m/s 737 mmHg 92%
    06:00 +12°C° 0.1 mm 4 m/s 737 mmHg 88%
    07:00 +13°C° 0.1 mm 5 m/s 737 mmHg 84%
    08:00 +15°C° 0 mm 5 m/s 737 mmHg 80%
    09:00 +15°C° 1.1 mm 6 m/s 737 mmHg 81%
    10:00 +15°C° 1.1 mm 7 m/s 737 mmHg 83%
    11:00 +15°C° 1.1 mm 7 m/s 737 mmHg 84%
    12:00 +14°C° 1.7 mm 6 m/s 737 mmHg 87%
    13:00 +13°C° 1.7 mm 6 m/s 737 mmHg 89%
    14:00 +13°C° 1.7 mm 5 m/s 737 mmHg 91%
    15:00 +13°C° 0.3 mm 5 m/s 737 mmHg 89%
    16:00 +14°C° 0.3 mm 5 m/s 737 mmHg 87%
    17:00 +15°C° 0.3 mm 5 m/s 737 mmHg 84%
    18:00 +14°C° 0.4 mm 4 m/s 737 mmHg 88%
    19:00 +13°C° 0.4 mm 3 m/s 737 mmHg 91%
    20:00 +12°C° 0.4 mm 3 m/s 737 mmHg 94%
    21:00 +11°C° 0 mm 3 m/s 738 mmHg 95%
    22:00 +12°C° 0 mm 2 m/s 738 mmHg 96%
    23:00 +10°C° 0 mm 2 m/s 738 mmHg 96%

    Demain, 6 Juin, Samedi

    Heure Température Précipitation Vent Pression Humidité
    00:00 +10°C° 0 mm 2 m/s 738 mmHg 97%
    01:00 +10°C° 0 mm 2 m/s 738 mmHg 97%
    02:00 +10°C° 0 mm 2 m/s 739 mmHg 98%
    03:00 +12°C° 0 mm 2 m/s 739 mmHg 98%
    04:00 +13°C° 0 mm 2 m/s 739 mmHg 98%
    05:00 +14°C° 0 mm 2 m/s 739 mmHg 98%
    06:00 +14°C° 0 mm 3 m/s 739 mmHg 96%
    07:00 +16°C° 0 mm 3 m/s 739 mmHg 94%
    08:00 +17°C° 0 mm 3 m/s 740 mmHg 92%
    09:00 +19°C° 0 mm 4 m/s 740 mmHg 87%
    10:00 +20°C° 0 mm 4 m/s 740 mmHg 83%
    11:00 +22°C° 0 mm 4 m/s 740 mmHg 78%
    12:00 +22°C° 0.1 mm 4 m/s 740 mmHg 77%
    13:00 +23°C° 0.1 mm 4 m/s 740 mmHg 76%
    14:00 +23°C° 0.1 mm 4 m/s 740 mmHg 75%
    15:00 +23°C° 0.3 mm 4 m/s 740 mmHg 79%
    16:00 +23°C° 0.3 mm 4 m/s 740 mmHg 83%
    17:00 +22°C° 0.3 mm 3 m/s 740 mmHg 86%
    18:00 +21°C° 0.6 mm 3 m/s 740 mmHg 88%
    19:00 +20°C° 0.6 mm 3 m/s 740 mmHg 90%
    20:00 +19°C° 0.6 mm 2 m/s 740 mmHg 92%
    21:00 +18°C° 0.1 mm 2 m/s 741 mmHg 92%
    22:00 +18°C° 0.1 mm 2 m/s 741 mmHg 93%
    23:00 +17°C° 0.1 mm 2 m/s 741 mmHg 94%

    Après-demain, 7 Juin, Dimanche

    Heure Température Précipitation Vent Pression Humidité
    00:00 +17°C° 0 mm 2 m/s 741 mmHg 94%
    01:00 +16°C° 0 mm 2 m/s 742 mmHg 95%
    02:00 +16°C° 0 mm 2 m/s 742 mmHg 95%
    03:00 +16°C° 0 mm 1 m/s 742 mmHg 95%
    04:00 +18°C° 0 mm 1 m/s 742 mmHg 94%
    05:00 +18°C° 0 mm 1 m/s 742 mmHg 94%
    06:00 +19°C° 0 mm 1 m/s 743 mmHg 90%
    07:00 +21°C° 0 mm 1 m/s 743 mmHg 85%
    08:00 +22°C° 0 mm 1 m/s 744 mmHg 81%
    09:00 +23°C° 0 mm 1 m/s 744 mmHg 76%
    10:00 +24°C° 0 mm 2 m/s 744 mmHg 71%
    11:00 +25°C° 0 mm 2 m/s 744 mmHg 66%
    12:00 +26°C° 0 mm 2 m/s 744 mmHg 65%
    13:00 +26°C° 0 mm 2 m/s 744 mmHg 63%
    14:00 +26°C° 0 mm 2 m/s 744 mmHg 61%
    15:00 +26°C° 0 mm 2 m/s 744 mmHg 65%
    16:00 +26°C° 0 mm 2 m/s 744 mmHg 68%
    17:00 +26°C° 0 mm 2 m/s 744 mmHg 71%
    18:00 +24°C° 0 mm 1 m/s 744 mmHg 76%
    19:00 +22°C° 0 mm 1 m/s 744 mmHg 80%
    20:00 +20°C° 0 mm 1 m/s 744 mmHg 85%
    21:00 +20°C° 0 mm 1 m/s 744 mmHg 87%
    22:00 +19°C° 0 mm 1 m/s 744 mmHg 88%
    23:00 +19°C° 0 mm 1 m/s 744 mmHg 90%

    8 Juin, Lundi

    Heure Température Précipitation Vent Pression Humidité
    00:00 +18°C° 0 mm 1 m/s 744 mmHg 91%
    01:00 +18°C° 0 mm 1 m/s 744 mmHg 91%
    02:00 +18°C° 0 mm 1 m/s 744 mmHg 91%
    03:00 +18°C° 0 mm 1 m/s 744 mmHg 91%
    04:00 +18°C° 0 mm 1 m/s 744 mmHg 91%
    05:00 +19°C° 0 mm 1 m/s 744 mmHg 90%
    06:00 +19°C° 0 mm 2 m/s 744 mmHg 87%
    07:00 +21°C° 0 mm 2 m/s 744 mmHg 84%
    08:00 +24°C° 0 mm 2 m/s 744 mmHg 80%
    09:00 +24°C° 0 mm 2 m/s 744 mmHg 77%
    10:00 +25°C° 0 mm 2 m/s 744 mmHg 74%
    11:00 +26°C° 0 mm 3 m/s 744 mmHg 70%
    12:00 +26°C° 0.2 mm 3 m/s 744 mmHg 71%
    13:00 +27°C° 0.2 mm 3 m/s 744 mmHg 72%
    14:00 +27°C° 0.2 mm 4 m/s 744 mmHg 73%
    15:00 +26°C° 0.2 mm 4 m/s 743 mmHg 76%
    16:00 +26°C° 0.2 mm 4 m/s 743 mmHg 79%
    17:00 +25°C° 0.2 mm 4 m/s 743 mmHg 81%
    18:00 +23°C° 0 mm 4 m/s 743 mmHg 85%
    19:00 +21°C° 0 mm 3 m/s 743 mmHg 88%
    20:00 +20°C° 0 mm 3 m/s 743 mmHg 91%
    21:00 +19°C° 0 mm 3 m/s 743 mmHg 92%
    22:00 +18°C° 0 mm 3 m/s 743 mmHg 93%
    23:00 +17°C° 0 mm 2 m/s 744 mmHg 93%

    9 Juin, Mardi

    Heure Température Précipitation Vent Pression Humidité
    00:00 +17°C° 0 mm 2 m/s 744 mmHg 94%
    01:00 +16°C° 0 mm 2 m/s 744 mmHg 94%
    02:00 +16°C° 0 mm 2 m/s 744 mmHg 94%
    03:00 +16°C° 0 mm 2 m/s 744 mmHg 93%
    04:00 +17°C° 0 mm 2 m/s 744 mmHg 93%
    05:00 +17°C° 0 mm 2 m/s 744 mmHg 92%
    06:00 +19°C° 0 mm 2 m/s 744 mmHg 87%
    07:00 +20°C° 0 mm 3 m/s 744 mmHg 83%
    08:00 +22°C° 0 mm 3 m/s 744 mmHg 79%
    09:00 +24°C° 0 mm 3 m/s 745 mmHg 76%
    10:00 +24°C° 0 mm 3 m/s 745 mmHg 73%
    11:00 +25°C° 0 mm 3 m/s 745 mmHg 69%
    12:00 +25°C° 0 mm 3 m/s 744 mmHg 69%
    13:00 +26°C° 0 mm 3 m/s 744 mmHg 68%
    14:00 +26°C° 0 mm 3 m/s 744 mmHg 67%
    15:00 +26°C° 0 mm 3 m/s 744 mmHg 69%
    16:00 +25°C° 0 mm 2 m/s 744 mmHg 71%
    17:00 +25°C° 0 mm 2 m/s 744 mmHg 73%
    18:00 +23°C° 0 mm 2 m/s 744 mmHg 79%
    19:00 +21°C° 0 mm 2 m/s 744 mmHg 84%
    20:00 +19°C° 0 mm 2 m/s 744 mmHg 90%
    21:00 +19°C° 0 mm 2 m/s 744 mmHg 91%
    22:00 +18°C° 0 mm 2 m/s 744 mmHg 93%
    23:00 +17°C° 0 mm 2 m/s 744 mmHg 94%

    10 Juin, Mercredi

    Heure Température Précipitation Vent Pression Humidité
    00:00 +18°C° 0 mm 1 m/s 744 mmHg 94%
    01:00 +18°C° 0 mm 1 m/s 744 mmHg 94%
    02:00 +16°C° 0 mm 1 m/s 744 mmHg 94%
    03:00 +18°C° 0 mm 1 m/s 744 mmHg 94%
    04:00 +18°C° 0 mm 1 m/s 744 mmHg 93%
    05:00 +18°C° 0 mm 2 m/s 745 mmHg 93%
    06:00 +19°C° 0 mm 2 m/s 745 mmHg 88%
    07:00 +21°C° 0 mm 2 m/s 745 mmHg 83%
    08:00 +23°C° 0 mm 2 m/s 744 mmHg 78%
    09:00 +24°C° 0 mm 2 m/s 745 mmHg 74%
    10:00 +25°C° 0 mm 2 m/s 745 mmHg 70%
    11:00 +26°C° 0 mm 2 m/s 745 mmHg 66%
    12:00 +27°C° 0 mm 2 m/s 745 mmHg 66%
    13:00 +27°C° 0 mm 2 m/s 744 mmHg 65%
    14:00 +27°C° 0 mm 2 m/s 744 mmHg 65%
    15:00 +27°C° 0 mm 2 m/s 744 mmHg 68%
    16:00 +27°C° 0 mm 2 m/s 744 mmHg 72%
    17:00 +27°C° 0 mm 2 m/s 744 mmHg 75%
    18:00 +25°C° 0.1 mm 2 m/s 744 mmHg 80%
    19:00 +24°C° 0.1 mm 2 m/s 744 mmHg 85%
    20:00 +21°C° 0.1 mm 2 m/s 744 mmHg 90%
    21:00 +21°C° 0 mm 2 m/s 744 mmHg 90%
    22:00 +21°C° 0 mm 1 m/s 744 mmHg 91%
    23:00 +20°C° 0 mm 1 m/s 744 mmHg 91%
    Voir plus